This demonstration page uses our WeatherBlox Daily Observations layout. Learn more.

Left ArrowRight Arrow

47.50024, -111.30081

Hourly Observations for November 20, 2015

Temp ( °F °C ) Dew Point ( °F °C ) Humidity (%) Winds ( mph kmh ) Pressure ( in mb ) Visibility ( mi km ) Precip ( " mm )
12:53 am 00:53 Cloudy 21 -6.1 17 -8.3 85 85 NW 6 9 30.17 1022 10 16 0.00 0.00
1:53 am 01:53 Cloudy 21 -6.1 17 -8.3 85 85 NNW 7 11 30.19 1023 10 16 0.00 0.00
2:53 am 02:53 Cloudy 21 -6.1 17 -8.3 85 85 N 5 7 30.22 1024 10 16 0.00 0.00
3:53 am 03:53 Cloudy with Light Snow 21 -6.1 17 -8.3 85 85 NNE 5 7 30.26 1025 7 11 0.00 0.03
4:26 am 04:26 Cloudy with Light Snow 20 -6.7 17 -8.3 89 89 N 6 9 30.36 1028 6 10 0.00 0.03
4:53 am 04:53 Cloudy with Light Snow 20 -6.7 17 -8.3 89 89 N 5 7 30.31 1026 4 6 0.00 0.03
5:08 am 05:08 Cloudy with Light Snow 19 -7 18 -8 93 93 NNE 7 11 30.39 1029 2 3 0.00 0.00
5:18 am 05:18 Cloudy with Light Snow 19 -7 18 -8 93 93 N 7 11 30.39 1029 2 3 0.00 0.00
5:21 am 05:21 Cloudy with Light Snow 20 -6.7 18 -7.8 92 92 N 8 13 30.39 1029 2 3 0.01 0.25
5:36 am 05:36 Cloudy with Light Snow 20 -6.7 18 -7.8 92 92 N 9 15 30.39 1029 1 2 0.01 0.25
5:49 am 05:49 Mostly Cloudy with Light Snow 19 -7 18 -8 93 93 N 8 13 30.39 1029 1 1 0.02 0.51
5:53 am 05:53 Mostly Cloudy with Light Snow 20 -6.7 18 -7.8 92 92 N 7 11 30.35 1028 1 1 0.02 0.51
6:53 am 06:53 Mostly Cloudy with Light Snow 20 -6.7 18 -7.8 92 92 N 7 11 30.39 1029 1 1 0.06 1.52
7:12 am 07:12 Cloudy with Light Snow 19 -7 18 -8 93 93 N 6 9 30.42 1030 1 2 0.00 0.00
7:25 am 07:25 Cloudy with Light Snow 20 -6.7 18 -7.8 92 92 N 5 7 30.45 1031 1 2 0.02 0.51
7:38 am 07:38 Mostly Cloudy with Light Snow 19 -7 18 -8 93 93 NNW 6 9 30.45 1031 1 1 0.00 0.00
7:53 am 07:53 Mostly Cloudy with Light Snow 20 -6.7 18 -7.8 92 92 NNW 5 7 30.43 1031 1 1 0.03 0.76
8:51 am 08:51 Cloudy with Light Snow 19 -7 18 -8 93 93 NNW 8 13 30.48 1032 2 3 0.02 0.51
8:53 am 08:53 Cloudy with Light Snow 20 -6.7 18 -7.8 92 92 NNW 8 13 30.49 1032 2 3 0.02 0.51
9:13 am 09:13 Cloudy with Light Snow 20 -6.7 18 -7.8 92 92 NW 8 13 30.53 1034 1 2 0.00 0.03
9:28 am 09:28 Cloudy with Light Snow 21 -6 18 -8 86 86 NNW 7 11 30.50 1033 1 2 0.00 0.00
9:53 am 09:53 Cloudy with Light Snow 21 -6.1 18 -7.8 88 88 N 9 15 30.52 1033 1 2 0.01 0.25
10:43 am 10:43 Cloudy with Light Snow 22 -5.6 18 -7.8 85 85 NW 10 17 30.56 1035 2 3 0.01 0.25
10:45 am 10:45 Cloudy with Light Snow 22 -5.6 17 -8.3 82 82 NW 9 15 30.56 1035 3 5 0.01 0.25
10:53 am 10:53 Cloudy 22 -5.6 18 -7.8 85 85 NW 8 13 30.54 1034 7 11 0.01 0.25
11:53 am 11:53 Cloudy 22 -5.6 18 -7.8 85 85 W 6 9 30.55 1035 10 16 0.00 0.00
12:53 pm 12:53 Mostly Sunny 22 -5.6 17 -8.3 82 82 SW 7 11 30.55 1035 10 16 0.00 0.00
1:53 pm 13:53 Mostly Sunny 22 -5.6 17 -8.3 82 82 SSW 9 15 30.55 1035 10 16 0.00 0.00
2:53 pm 14:53 Sunny 21 -6.1 15 -9.4 78 78 S 9 15 30.56 1035 10 16 0.00 0.00
3:53 pm 15:53 Sunny 19 -7.2 13 -10.6 77 77 S 8 13 30.56 1035 10 16 0.00 0.00
4:53 pm 16:53 Clear 14 -10 8 -13.3 77 77 SSW 10 17 30.56 1035 10 16 0.00 0.00
5:53 pm 17:53 Clear 15 -9.4 8 -13.3 74 74 SSW 13 20 30.56 1035 10 16 0.00 0.00
6:53 pm 18:53 Clear 17 -8.3 10 -12.2 74 74 SW 15 24 30.56 1035 10 16 0.00 0.00
7:53 pm 19:53 Clear 16 -8.9 9 -12.8 74 74 SSW 12 19 30.56 1035 10 16 0.00 0.00
8:53 pm 20:53 Clear 16 -8.9 8 -13.3 71 71 SSW 14 22 30.55 1035 10 16 0.00 0.00
9:53 pm 21:53 Clear 18 -7.8 8 -13.3 65 65 SSW 13 20 30.52 1034 10 16 0.00 0.00
10:53 pm 22:53 Clear 19 -7.2 9 -12.8 65 65 SSW 15 24 30.49 1033 10 16 0.00 0.00
11:53 pm 23:53 Clear 19 -7.2 10 -12.2 68 68 SSW 14 22 30.47 1032 10 16 0.00 0.00

Powered by AerisWeather